Лохгилпхед

Великобритания     56°02′10″N   5°25′52″W
темп.,
°C
ветер,
м/с
пор.,
м/с
влажн.,
%
обл.,
%
осадки,
мм/ч
давл.,
гПа
погр.,
м
15 апреля, чт
чт1501:00+4в11835 0.0 103520
04:00+3вюв22845 0.0 103428
07:00+3юв22855 0.0 103448
10:00+8ююв24658 0.0 1034498
13:00+10ююв45577 0.0 10341160
16:00+11ю345310 0.0 10321305
19:00+9ююз366713 0.0 1032552
22:00+4юв24823 0.0 1032115
16 апреля, пт
пт1601:00+3юв238919 0.0 103293
04:00+2вюв348984 0.0 1031101
07:00+2вюв2384100 0.0 103199
10:00+7юв4668100 0.0 1031660
13:00+9ю4657100 0.0 10301128
16:00+9ю4650100 0.0 10291131
19:00+8ююв3667100 0.0 1029446
22:00+6вюв2281100 0.0 103094
17 апреля, сб
сб1701:00+5вюв238978 0.0 1029131
04:00+5вюв248895 0.0 1028177
07:00+5юв388794 0.0 1028434
10:00+8юв6970100 0.0 1027965
13:00+10ююв7105279 0.0 10251140
16:00+10ююв81357100 0.0 10231116
19:00+7ююв71271100 0.1 1022934
22:00+6ююв71388100 0.9 1021984
18 апреля, вс
вс1801:00+6ююв61292100 2.9 1020796
04:00+6ююв51194100 3.5 1018709
07:00+7ююв2797100 5.9 1018461
10:00+7ююв2497100 0.6 1018351
13:00+8юв2494100 0.7 1019394
16:00+8юв2393100 0.0 1018399
19:00+8вюв2696100 0.1 1018407
22:00+8юв3996100 0.1 1018469
19 апреля, пн
пн1901:00+8юв41195100 0.2 1017561
04:00+8юв61296100 0.3 1015640
07:00+8юв61296100 1.6 1014590
10:00+8юв41195100 1.0 1014652
13:00+8ююв61294100 1.6 1013873
16:00+8ююв61193100 1.3 1013888
19:00+7юв3896100 5.9 1013517
22:00+8ююв3997100 2.8 1013655